Cheboygan, MI

7:55 PM EDT on April 29, 2017 (GMT -0400)
Cheboygan

Weather History for KSLH - March, 2013

Change the Weather History Date:

Thursday, March 14, 2013

  Actual Average (KMCD) Record (KMCD)
Temperature  
Mean Temperature 22 °F -  
Max Temperature 32 °F 29 °F 51 °F (1990)
Min Temperature 13 °F 17 °F -4 °F (1993)
Degree Days  
Heating Degree Days 42    
Moisture  
Dew Point 15 °F    
Average Humidity 68    
Maximum Humidity 91    
Minimum Humidity 46    
Precipitation  
Precipitation 0.00 in - - ()
Sea Level Pressure  
Sea Level Pressure 30.12 in    
Wind  
Wind Speed 6 mph (West)    
Max Wind Speed 13 mph    
Max Gust Speed 16 mph    
Visibility 10 miles    
Events      
Averages and records for this station are not official NWS values.
T = Trace of Precipitation, MM = Missing Value Source: NWS Daily Summary

Daily Weather History Graph

Daily Weather History Graph

Search for Another Location

Airport or City:

Trip Planner

Search our weather history database for the weather conditions in past years. The results will help you decide how hot, cold, wet, or windy it might be!

Date:

Astronomy

Mar. 14, 2013 Rise Set
Actual Time 7:52 AM EDT 7:42 PM EDT
Civil Twilight 7:22 AM EDT 8:12 PM EDT
Nautical Twilight 6:48 AM EDT 8:47 PM EDT
Astronomical Twilight 6:12 AM EDT 9:22 PM EDT
Moon 8:54 AM EDT (3/14) 11:10 PM EDT (3/14)
Length of Visible Light 12h 50m
Length of Day
11h 50m
Waxing Crescent, 9% of the Moon is Illuminated
Mar 14
Waxing Crescent
Mar 19
First Quarter
Mar 27
Full
Apr 3
Last Quarter
Apr 10
New

Hourly Weather History & Observations

Time (EDT) Temp. Windchill Dew Point Humidity Pressure Visibility Wind Dir Wind Speed Gust Speed Precip Events Conditions
12:15 AM 21.0 °F 13.4 °F 18.1 °F 89% 30.15 in 10.0 mi West 5.8 mph - N/A   Clear
12:35 AM 21.0 °F 13.4 °F 18.3 °F 89% 30.15 in 10.0 mi West 5.8 mph - N/A   Clear
12:54 AM 21.0 °F 10.6 °F 18.9 °F 91% 30.14 in 10.0 mi West 9.2 mph - N/A   Clear
1:15 AM 21.2 °F 11.7 °F 19.0 °F 91% 30.14 in 10.0 mi West 8.1 mph - N/A   Clear
1:35 AM 21.7 °F 10.8 °F 19.4 °F 91% 30.14 in 10.0 mi West 10.4 mph - N/A   Clear
1:55 AM 22.1 °F 12.8 °F 19.6 °F 90% 30.14 in 10.0 mi West 8.1 mph - N/A   Scattered Clouds
2:15 AM 22.8 °F 14.5 °F 20.1 °F 89% 30.15 in 10.0 mi West 6.9 mph - N/A   Overcast
3:15 AM 22.8 °F 15.5 °F 20.3 °F 90% 30.16 in 10.0 mi West 5.8 mph - N/A   Overcast
3:35 AM 22.6 °F 14.3 °F 20.5 °F 91% 30.16 in 10.0 mi WNW 6.9 mph - N/A   Overcast
3:55 AM 23.0 °F 15.8 °F 19.9 °F 88% 30.16 in 10.0 mi NW 5.8 mph - N/A   Overcast
4:15 AM 23.4 °F 14.3 °F 17.4 °F 78% 30.15 in 10.0 mi NW 8.1 mph - N/A   Overcast
4:35 AM 22.5 °F 15.1 °F 14.5 °F 72% 30.15 in 10.0 mi NW 5.8 mph - N/A   Overcast
4:55 AM 21.4 °F 12.8 °F 14.2 °F 74% 30.16 in 10.0 mi NNW 6.9 mph - N/A   Scattered Clouds
5:15 AM 20.7 °F 11.9 °F 12.6 °F 71% 30.16 in 10.0 mi NNW 6.9 mph - N/A   Clear
5:34 AM 19.9 °F 12.1 °F 13.1 °F 75% 30.16 in 10.0 mi NW 5.8 mph - N/A   Clear
5:55 AM 19.0 °F 10.0 °F 10.8 °F 70% 30.16 in 10.0 mi NNW 6.9 mph - N/A   Clear
6:15 AM 17.4 °F 12.1 °F 9.5 °F 71% 30.17 in 10.0 mi NW 3.5 mph - N/A   Clear
6:35 AM 16.7 °F 11.2 °F 9.9 °F 74% 30.17 in 10.0 mi WNW 3.5 mph - N/A   Clear
6:55 AM 15.4 °F - 9.9 °F 79% 30.18 in 10.0 mi Calm Calm - N/A   Clear
7:15 AM 13.3 °F 5.6 °F 9.3 °F 84% 30.18 in 10.0 mi West 4.6 mph - N/A   Clear
7:35 AM 13.1 °F 5.4 °F 9.1 °F 84% 30.18 in 10.0 mi WNW 4.6 mph - N/A   Clear
7:55 AM 14.0 °F 6.5 °F 9.1 °F 81% 30.19 in 10.0 mi West 4.6 mph - N/A   Clear
8:15 AM 13.6 °F 6.0 °F 7.9 °F 78% 30.19 in 10.0 mi West 4.6 mph - N/A   Clear
8:35 AM 15.3 °F 7.9 °F 8.1 °F 73% 30.19 in 10.0 mi West 4.6 mph - N/A   Clear
8:54 AM 15.8 °F 10.2 °F 7.7 °F 70% 30.19 in 10.0 mi NW 3.5 mph - N/A   Clear
9:15 AM 18.1 °F 12.9 °F 8.1 °F 65% 30.20 in 10.0 mi WNW 3.5 mph - N/A   Clear
9:34 AM 18.7 °F 11.9 °F 7.9 °F 63% 30.21 in 10.0 mi NW 4.6 mph - N/A   Clear
9:55 AM 20.7 °F 15.8 °F 8.8 °F 60% 30.21 in 10.0 mi NNW 3.5 mph - N/A   Clear
10:15 AM 21.9 °F 14.5 °F 9.1 °F 58% 30.21 in 10.0 mi NW 5.8 mph - N/A   Clear
10:35 AM 22.5 °F 16.3 °F 9.5 °F 58% 30.21 in 10.0 mi NNW 4.6 mph - N/A   Clear
10:55 AM 23.4 °F 15.2 °F 9.5 °F 55% 30.21 in 10.0 mi NNW 6.9 mph - N/A   Clear
11:15 AM 23.9 °F 15.0 °F 10.6 °F 57% 30.20 in 10.0 mi NNW 8.1 mph - N/A   Clear
11:35 AM 24.4 °F 17.5 °F 10.9 °F 57% 30.20 in 10.0 mi North 5.8 mph - N/A   Clear
11:55 AM 24.6 °F 17.7 °F 11.3 °F 57% 30.20 in 10.0 mi North 5.8 mph - N/A   Clear
12:15 PM 25.0 °F 17.1 °F 11.7 °F 57% 30.19 in 10.0 mi North 6.9 mph - N/A   Clear
12:35 PM 25.7 °F 20.1 °F 12.9 °F 58% 30.18 in 10.0 mi NW 4.6 mph - N/A   Clear
12:55 PM 27.5 °F 18.0 °F 14.7 °F 59% 30.17 in 10.0 mi NW 10.4 mph - N/A   Clear
1:15 PM 28.9 °F 22.8 °F 15.6 °F 58% 30.17 in 10.0 mi WNW 5.8 mph - N/A   Clear
1:35 PM 28.9 °F 25.2 °F 15.8 °F 58% 30.17 in 10.0 mi NNE 3.5 mph - N/A   Clear
1:55 PM 28.4 °F 24.6 °F 16.9 °F 62% 30.16 in 10.0 mi ENE 3.5 mph - N/A   Clear
2:14 PM 28.9 °F - 15.4 °F 57% 30.16 in 10.0 mi Calm Calm - N/A   Clear
2:35 PM 31.6 °F 26.0 °F 14.5 °F 49% 30.15 in 10.0 mi West 5.8 mph - N/A   Clear
2:55 PM 31.8 °F 24.6 °F 15.3 °F 50% 30.14 in 10.0 mi West 8.1 mph - N/A   Clear
3:15 PM 32.0 °F 25.6 °F 16.9 °F 54% 30.13 in 10.0 mi WSW 6.9 mph - N/A   Clear
3:55 PM 32.0 °F 24.2 °F 13.6 °F 47% 30.12 in 10.0 mi WSW 9.2 mph - N/A   Clear
4:15 PM 32.2 °F 24.4 °F 15.6 °F 51% 30.11 in 10.0 mi West 9.2 mph - N/A   Clear
4:35 PM 32.7 °F 23.9 °F 16.3 °F 51% 30.10 in 10.0 mi West 11.5 mph - N/A   Clear
4:55 PM 32.0 °F 24.8 °F 16.3 °F 52% 30.10 in 10.0 mi WSW 8.1 mph 16.1 mph N/A   Clear
5:15 PM 32.2 °F 22.7 °F 16.5 °F 53% 30.09 in 10.0 mi SW 12.7 mph - N/A   Clear
5:35 PM 32.0 °F 24.2 °F 17.1 °F 54% 30.10 in 10.0 mi West 9.2 mph - N/A   Scattered Clouds
5:55 PM 31.1 °F 25.4 °F 14.9 °F 51% 30.09 in 10.0 mi WSW 5.8 mph - N/A   Clear
6:15 PM 31.5 °F 23.5 °F 12.7 °F 46% 30.08 in 10.0 mi SW 9.2 mph - N/A   Clear
6:35 PM 31.6 °F 23.1 °F 14.2 °F 49% 30.08 in 10.0 mi WSW 10.4 mph - N/A   Scattered Clouds
6:55 PM 30.9 °F 22.8 °F 15.8 °F 54% 30.08 in 10.0 mi West 9.2 mph - N/A   Scattered Clouds
7:15 PM 30.0 °F 22.4 °F 17.2 °F 59% 30.06 in 10.0 mi WSW 8.1 mph - N/A   Clear
7:35 PM 29.1 °F 23.0 °F 17.4 °F 62% 30.05 in 10.0 mi WSW 5.8 mph - N/A   Clear
7:55 PM 28.0 °F 22.8 °F 17.6 °F 65% 30.04 in 10.0 mi SW 4.6 mph - N/A   Clear
8:15 PM 28.4 °F 23.3 °F 19.0 °F 68% 30.03 in 10.0 mi SSW 4.6 mph - N/A   Scattered Clouds
8:35 PM 27.5 °F 23.6 °F 19.2 °F 71% 30.02 in 10.0 mi SW 3.5 mph - N/A   Scattered Clouds
8:55 PM 27.1 °F 21.8 °F 19.4 °F 73% 30.01 in 10.0 mi SSW 4.6 mph - N/A   Scattered Clouds
9:15 PM 27.9 °F 21.5 °F 20.7 °F 74% 29.99 in 10.0 mi SSW 5.8 mph - N/A   Mostly Cloudy
9:35 PM 27.9 °F 24.0 °F 20.3 °F 73% 29.98 in 10.0 mi SW 3.5 mph - N/A   Overcast
9:55 PM 27.9 °F 24.0 °F 21.0 °F 75% 29.97 in 10.0 mi SSW 3.5 mph - N/A   Overcast
10:15 PM 28.4 °F 24.6 °F 21.0 °F 74% 29.97 in 10.0 mi SSW 3.5 mph - N/A   Overcast
10:34 PM 28.4 °F 24.6 °F 21.0 °F 74% 29.97 in 10.0 mi SSW 3.5 mph - N/A   Overcast
10:55 PM 28.6 °F 24.8 °F 21.2 °F 74% 29.97 in 10.0 mi SSW 3.5 mph - N/A   Overcast
11:15 PM 29.5 °F 22.5 °F 20.5 °F 69% 29.96 in 10.0 mi SW 6.9 mph - N/A   Overcast
11:35 PM 30.2 °F 23.4 °F 19.4 °F 64% 29.96 in 10.0 mi SW 6.9 mph - N/A   Overcast
11:55 PM 30.2 °F 24.3 °F 19.9 °F 66% 29.95 in 10.0 mi SW 5.8 mph - N/A   Overcast